This demonstration page uses our WeatherBlox Daily Observations layout. Learn more.

Left ArrowRight Arrow

Hourly Observations for August 4, 2021

Temp ( °F °C ) Dew Point ( °F °C ) Humidity (%) Winds ( mph kmh ) Pressure ( in mb ) Visibility ( mi km ) Precip ( " mm )
12:15 am 00:15 Clear 65 18.5 60 15.6 83 83 SE 10 17 30.00 1016 10 16 N/A
12:35 am 00:35 Clear 65 18.5 60 15.4 82 82 SSE 9 15 30.00 1016 10 16 N/A
12:55 am 00:55 Clear 65 18.3 59 15 81 81 SE 8 13 30.00 1016 10 16 N/A
1:15 am 01:15 Clear 64 17.9 58 14.7 82 82 SE 9 15 30.00 1016 10 16 N/A
1:35 am 01:35 Clear 64 17.5 58 14.7 84 84 SE 8 13 30.00 1016 10 16 N/A
1:55 am 01:55 Clear 63 17.1 58 14.6 85 85 SE 8 13 30.00 1016 10 16 N/A
2:15 am 02:15 Clear 62 16.8 58 14.5 86 86 SSE 6 9 30.00 1016 10 16 N/A
2:35 am 02:35 Clear 62 16.7 58 14.5 87 87 SSE 8 13 30.00 1016 10 16 N/A
2:55 am 02:55 Clear 62 16.5 58 14.3 87 87 SSE 9 15 30.01 1016 10 16 N/A
3:15 am 03:15 Clear 62 16.5 58 14.3 87 87 SSE 7 11 30.00 1016 10 16 N/A
3:35 am 03:35 Clear 62 16.5 58 14.3 87 87 SSE 7 11 30.00 1016 10 16 N/A
3:55 am 03:55 Clear 62 16.5 58 14.3 87 87 SSE 9 15 30.00 1016 10 16 N/A
4:15 am 04:15 Clear 61 16.3 58 14.3 88 88 SSE 7 11 30.00 1016 10 16 N/A
4:35 am 04:35 Partly Cloudy 61 16.3 58 14.5 89 89 SSE 10 17 30.00 1016 10 16 N/A
4:55 am 04:55 Clear 61 16.3 58 14.5 89 89 SSE 7 11 29.99 1016 10 16 N/A
5:15 am 05:15 Clear 62 16.5 58 14.5 88 88 SSE 9 15 29.99 1015 10 16 N/A
5:35 am 05:35 Clear 62 16.4 58 14.4 88 88 SSE 8 13 29.99 1015 10 16 N/A
5:55 am 05:55 Clear 61 16.3 58 14.5 89 89 SSE 9 15 29.99 1016 10 16 N/A
6:15 am 06:15 Clear 61 16.3 58 14.5 89 89 SSE 8 13 29.99 1016 10 16 N/A
6:35 am 06:35 Clear 61 16.3 58 14.5 89 89 SSE 10 17 29.99 1016 10 16 N/A
6:55 am 06:55 Sunny 62 16.5 58 14.5 88 88 SSE 10 17 29.99 1015 10 16 N/A
7:15 am 07:15 Sunny 63 17 58 14.6 86 86 SSE 12 19 29.99 1016 10 16 N/A
7:35 am 07:35 Sunny 63 17.2 58 14.7 85 85 SSE 13 20 29.99 1016 10 16 N/A
7:55 am 07:55 Sunny 64 17.6 59 14.8 84 84 SSE 13 20 29.99 1015 10 16 N/A
8:15 am 08:15 Sunny 64 18 59 15 83 83 SSE 12 19 29.98 1015 10 16 N/A
8:35 am 08:35 Sunny 65 18.6 59 15.1 80 80 SSE 12 19 29.98 1015 10 16 N/A
8:55 am 08:55 Sunny 67 19.3 60 15.5 79 79 S 10 17 29.97 1015 10 16 N/A
9:15 am 09:15 Sunny 68 20.1 60 15.6 75 75 S 13 20 29.97 1015 10 16 N/A
9:35 am 09:35 Sunny 70 20.9 60 15.7 72 72 S 12 19 29.96 1015 10 16 N/A
10:15 am 10:15 Sunny 73 22.9 61 15.9 65 65 S 12 19 29.94 1014 10 16 N/A
10:35 am 10:35 Sunny 75 24 60 15.6 59 59 S 14 22 29.93 1014 10 16 N/A
10:55 am 10:55 Sunny 76 24.3 60 15.7 59 59 S 13 20 29.93 1014 10 16 N/A
11:15 am 11:15 Sunny 77 25 60 15.8 57 57 SSW 14 22 29.93 1013 10 16 N/A
11:35 am 11:35 Sunny 78 25.7 61 16 55 55 SSW 15 24 29.91 1013 10 16 N/A
11:55 am 11:55 Sunny 79 25.9 61 16 54 54 SSW 15 24 29.91 1013 10 16 N/A
12:15 pm 12:15 Sunny 80 26.8 62 16.6 54 54 SSW 14 22 29.90 1013 10 16 N/A
12:35 pm 12:35 Sunny 81 27.4 62 16.6 52 52 SSW 14 22 29.90 1012 10 16 N/A
12:55 pm 12:55 Sunny 83 28.4 62 16.9 50 50 SSW 16 26 29.87 1012 10 16 N/A
1:15 pm 13:15 Sunny 84 28.8 63 17.2 50 50 SSW 15 24 29.87 1011 10 16 N/A
1:35 pm 13:35 Sunny 84 29.1 63 17.3 49 49 SSW 14 22 29.86 1011 10 16 N/A
1:55 pm 13:55 Sunny 86 29.9 63 17.4 47 47 SW 9 15 29.85 1011 10 16 N/A
2:15 pm 14:15 Sunny 88 31.1 63 17.4 44 44 SSW 10 17 29.84 1010 10 16 N/A
2:35 pm 14:35 Sunny 89 31.5 65 18.3 45 45 SW 8 13 29.83 1010 10 16 N/A
2:55 pm 14:55 Sunny 89 31.8 64 17.7 43 43 SW 12 19 29.82 1010 10 16 N/A
3:15 pm 15:15 Sunny 90 32.2 63 17.4 41 41 SW 9 15 29.82 1010 10 16 N/A
3:35 pm 15:35 Sunny 90 32.2 63 17.4 41 41 WSW 6 9 29.81 1010 10 16 N/A
3:55 pm 15:55 Sunny 90 32.4 64 18 42 42 W 7 11 29.81 1009 10 16 N/A
4:15 pm 16:15 Sunny 89 31.6 63 17.3 42 42 W 7 11 29.81 1009 10 16 N/A
4:35 pm 16:35 Sunny 89 31.5 63 17 42 42 W 7 11 29.81 1009 10 16 N/A
4:55 pm 16:55 Sunny 88 31 65 18.2 46 46 WSW 6 9 29.81 1009 10 16 N/A
5:15 pm 17:15 Sunny 90 32 63 17.3 41 41 WSW 6 9 29.80 1009 10 16 N/A
5:35 pm 17:35 Sunny 88 31.1 66 19 49 49 N N/A 29.81 1009 10 16 N/A
5:55 pm 17:55 Sunny 86 30.1 68 20 55 55 NW 3 6 29.83 1010 10 16 N/A
6:15 pm 18:15 Sunny 84 28.8 71 21.7 66 66 NNW 3 6 29.84 1010 10 16 N/A
6:35 pm 18:35 Partly Cloudy 83 28.3 71 21.4 66 66 N N/A 29.83 1010 10 16 N/A
6:55 pm 18:55 Partly Cloudy 82 27.7 72 22 71 71 N N/A 29.85 1011 7 11 N/A
7:15 pm 19:15 Partly Cloudy with Nearby Thunderstorms 78 25.5 60 15.7 55 55 NW 13 20 29.88 1012 10 16 N/A
7:35 pm 19:35 Mostly Cloudy with Thunderstorms 75 24 62 16.4 63 63 NNW 9 15 29.89 1012 10 16 N/A
7:55 pm 19:55 Mostly Cloudy with Nearby Thunderstorms 74 23.4 62 16.7 66 66 NNW 15 24 29.91 1013 10 16 N/A
8:15 pm 20:15 Mostly Cloudy 73 23 61 16 65 65 N 15 24 29.91 1013 10 16 N/A
8:35 pm 20:35 Partly Cloudy 73 22.5 58 14.6 61 61 N 14 22 29.91 1013 10 16 N/A
8:55 pm 20:55 Partly Cloudy 72 22.1 59 14.9 64 64 NW 7 11 29.92 1013 10 16 N/A
9:15 pm 21:15 Mostly Cloudy 71 21.4 60 15.6 70 70 WNW 8 13 29.95 1014 10 16 N/A
9:35 pm 21:35 Cloudy 70 21.3 60 15.7 71 71 W 6 9 29.95 1014 10 16 N/A
9:55 pm 21:55 Cloudy 70 20.9 61 16 74 74 W 7 11 29.95 1014 10 16 N/A
10:15 pm 22:15 Mostly Cloudy 69 20.5 61 16.1 76 76 W 9 15 29.97 1015 10 16 N/A
10:35 pm 22:35 Cloudy with Drizzle 69 20.5 61 16.1 76 76 W 10 17 29.98 1015 10 16 N/A
10:55 pm 22:55 Cloudy 70 21 60 15.6 71 71 W 9 15 29.97 1015 10 16 N/A
11:15 pm 23:15 Cloudy with Light Rain 69 20.6 62 16.5 77 77 SW 6 9 29.98 1015 10 16 N/A
11:35 pm 23:35 Cloudy with Light Rain 70 21 61 16.2 74 74 WNW 5 7 29.97 1015 10 16 N/A
11:55 pm 23:55 Cloudy with Light Rain 70 21.1 63 17 78 78 SE 3 6 29.96 1014 10 16 0.01 0.25

Powered by AerisWeather